Location: ??????
(55.6130°N, 37.7882°E)
Time: 13:54:09
(UTC+00:00)

CRYOSAT 2 - Pass Details

Date: 14 April 2024
Orbit: 716 x 723 km, 92.0° (Epoch: 17 May)

Event Time Altitude Azimuth Distance (km) Brightness Sun altitude
Rises 01:44:20 0° 4° (N) 3,145 8.1 -6.3°
Reaches altitude 10° 01:46:38 10° 5° (N) 2,218 7.4 -6.0°
Maximum altitude 01:51:33 90° 65° (ENE) 727 4.4 -5.4°
Drops below altitude 10° 01:56:25 10° 187° (S) 2,198 6.6 -4.7°
Sets 01:58:41 0° 187° (S) 3,113 7.3 -4.4°
